Wetterdaten: Samstag, 28.03.2020
Datum Zeit Temp. Auen Feucht Auen Luftdruck Regen Richtung Richtung Windben
28.03.2020 00:00 3,7 C 74 % 1015,5 hPa 0,0 mm N 5 0,0 km/h (0 Bft)
28.03.2020 00:05 3,7 C 74 % 1015,5 hPa 0,0 mm N 5 1,6 km/h (1 Bft)
28.03.2020 00:10 3,6 C 74 % 1015,4 hPa 0,0 mm N 5 1,6 km/h (1 Bft)
28.03.2020 00:15 3,5 C 74 % 1015,4 hPa 0,0 mm N 5 4,8 km/h (1 Bft)
28.03.2020 00:20 3,4 C 75 % 1015,5 hPa 0,0 mm N 5 0,0 km/h (0 Bft)
28.03.2020 00:25 3,3 C 74 % 1015,4 hPa 0,0 mm N 5 0,0 km/h (0 Bft)
28.03.2020 00:30 3,3 C 75 % 1015,4 hPa 0,0 mm N 5 0,0 km/h (0 Bft)
28.03.2020 00:35 3,2 C 75 % 1015,4 hPa 0,0 mm N 5 0,0 km/h (0 Bft)
28.03.2020 00:40 3,1 C 75 % 1015,4 hPa 0,0 mm N 9 3,2 km/h (1 Bft)
28.03.2020 00:45 2,9 C 75 % 1015,4 hPa 0,0 mm N 9 1,6 km/h (1 Bft)
28.03.2020 00:50 2,8 C 76 % 1015,3 hPa 0,0 mm N 9 0,0 km/h (0 Bft)
28.03.2020 00:55 2,7 C 76 % 1015,3 hPa 0,0 mm N 9 0,0 km/h (0 Bft)
28.03.2020 01:00 2,7 C 76 % 1015,3 hPa 0,0 mm N 360 0,0 km/h (0 Bft)
28.03.2020 01:05 2,7 C 77 % 1015,3 hPa 0,0 mm NW 324 0,0 km/h (0 Bft)
28.03.2020 01:10 2,6 C 77 % 1015,2 hPa 0,0 mm NW 324 0,0 km/h (0 Bft)
28.03.2020 01:15 2,4 C 77 % 1015,2 hPa 0,0 mm NW 324 0,0 km/h (0 Bft)
28.03.2020 01:20 2,3 C 77 % 1015,3 hPa 0,0 mm NW 324 0,0 km/h (0 Bft)
28.03.2020 01:25 2,2 C 77 % 1015,2 hPa 0,0 mm NW 324 0,0 km/h (0 Bft)
28.03.2020 01:30 2,1 C 77 % 1015,2 hPa 0,0 mm NW 324 0,0 km/h (0 Bft)
28.03.2020 01:35 2,1 C 77 % 1015,2 hPa 0,0 mm NW 324 0,0 km/h (0 Bft)
28.03.2020 01:40 1,9 C 77 % 1015,2 hPa 0,0 mm NW 324 0,0 km/h (0 Bft)
28.03.2020 01:45 1,8 C 78 % 1015,1 hPa 0,0 mm NW 324 0,0 km/h (0 Bft)
28.03.2020 01:50 1,7 C 78 % 1015,1 hPa 0,0 mm NW 324 0,0 km/h (0 Bft)
28.03.2020 01:55 1,6 C 78 % 1015,1 hPa 0,0 mm NW 324 0,0 km/h (0 Bft)
28.03.2020 02:00 1,6 C 78 % 1015,1 hPa 0,0 mm NW 324 0,0 km/h (0 Bft)
28.03.2020 02:05 1,4 C 78 % 1015,0 hPa 0,0 mm NW 324 0,0 km/h (0 Bft)
28.03.2020 02:10 1,3 C 79 % 1015,0 hPa 0,0 mm NW 324 0,0 km/h (0 Bft)
28.03.2020 02:15 1,3 C 79 % 1015,1 hPa 0,0 mm NW 324 4,8 km/h (1 Bft)
28.03.2020 02:20 1,2 C 79 % 1015,1 hPa 0,0 mm NW 324 4,8 km/h (1 Bft)
28.03.2020 02:25 1,2 C 80 % 1015,1 hPa 0,0 mm W-NW 292 6,4 km/h (2 Bft)
28.03.2020 02:30 1,1 C 80 % 1015,1 hPa 0,0 mm W-NW 292 3,2 km/h (1 Bft)
28.03.2020 02:35 1,0 C 80 % 1015,1 hPa 0,0 mm W-NW 292 4,8 km/h (1 Bft)
28.03.2020 02:40 0,9 C 80 % 1015,0 hPa 0,0 mm W-NW 292 0,0 km/h (0 Bft)
28.03.2020 02:45 0,9 C 80 % 1015,0 hPa 0,0 mm W-NW 292 0,0 km/h (0 Bft)
28.03.2020 02:50 0,8 C 80 % 1015,0 hPa 0,0 mm W-NW 292 3,2 km/h (1 Bft)
28.03.2020 02:55 0,8 C 80 % 1015,0 hPa 0,0 mm W-NW 292 3,2 km/h (1 Bft)
28.03.2020 03:00 0,7 C 80 % 1015,0 hPa 0,0 mm W-NW 292 3,2 km/h (1 Bft)
28.03.2020 03:05 0,7 C 81 % 1015,0 hPa 0,0 mm W-NW 292 3,2 km/h (1 Bft)
28.03.2020 03:10 0,7 C 81 % 1015,0 hPa 0,0 mm W-NW 292 0,0 km/h (0 Bft)
28.03.2020 03:15 0,6 C 81 % 1015,0 hPa 0,0 mm W-NW 292 0,0 km/h (0 Bft)
28.03.2020 03:20 0,6 C 81 % 1015,1 hPa 0,0 mm W-NW 292 0,0 km/h (0 Bft)
28.03.2020 03:25 0,6 C 81 % 1015,1 hPa 0,0 mm W-NW 292 6,4 km/h (2 Bft)
28.03.2020 03:30 0,6 C 82 % 1015,0 hPa 0,0 mm W-NW 292 3,2 km/h (1 Bft)
28.03.2020 03:35 0,5 C 82 % 1015,0 hPa 0,0 mm W-NW 292 3,2 km/h (1 Bft)
28.03.2020 03:40 0,4 C 82 % 1015,0 hPa 0,0 mm W-NW 292 6,4 km/h (2 Bft)
28.03.2020 03:45 0,4 C 82 % 1015,0 hPa 0,0 mm W-NW 292 3,2 km/h (1 Bft)
28.03.2020 03:50 0,4 C 82 % 1015,0 hPa 0,0 mm W-NW 292 4,8 km/h (1 Bft)
28.03.2020 03:55 0,3 C 82 % 1015,0 hPa 0,0 mm W-NW 292 6,4 km/h (2 Bft)
28.03.2020 04:00 0,3 C 82 % 1015,1 hPa 0,0 mm W-NW 292 1,6 km/h (1 Bft)
28.03.2020 04:05 0,2 C 83 % 1015,1 hPa 0,0 mm W-NW 292 3,2 km/h (1 Bft)
28.03.2020 04:10 0,2 C 83 % 1015,2 hPa 0,0 mm W-NW 292 4,8 km/h (1 Bft)
28.03.2020 04:15 0,2 C 83 % 1015,2 hPa 0,0 mm W-NW 292 4,8 km/h (1 Bft)
28.03.2020 04:20 0,2 C 83 % 1015,2 hPa 0,0 mm W-NW 292 4,8 km/h (1 Bft)
28.03.2020 04:25 0,2 C 83 % 1015,1 hPa 0,0 mm W-NW 292 4,8 km/h (1 Bft)
28.03.2020 04:30 0,1 C 83 % 1015,2 hPa 0,0 mm W-NW 292 1,6 km/h (1 Bft)
28.03.2020 04:35 0,1 C 83 % 1015,2 hPa 0,0 mm W-NW 292 3,2 km/h (1 Bft)
28.03.2020 04:40 0,0 C 83 % 1015,3 hPa 0,0 mm W-NW 292 3,2 km/h (1 Bft)
28.03.2020 04:45 0,0 C 83 % 1015,3 hPa 0,0 mm W-NW 292 4,8 km/h (1 Bft)
28.03.2020 04:50 -0,1 C 83 % 1015,3 hPa 0,0 mm W-NW 292 4,8 km/h (1 Bft)
28.03.2020 04:55 -0,1 C 84 % 1015,3 hPa 0,0 mm W-NW 290 8,0 km/h (2 Bft)
28.03.2020 05:00 -0,1 C 84 % 1015,4 hPa 0,0 mm W-NW 290 4,8 km/h (1 Bft)
28.03.2020 05:05 0,0 C 84 % 1015,6 hPa 0,0 mm W-NW 290 4,8 km/h (1 Bft)
28.03.2020 05:10 0,0 C 84 % 1015,6 hPa 0,0 mm W-NW 290 4,8 km/h (1 Bft)
28.03.2020 05:15 -0,1 C 84 % 1015,6 hPa 0,0 mm W-NW 290 4,8 km/h (1 Bft)
28.03.2020 05:20 -0,1 C 84 % 1015,7 hPa 0,0 mm W-NW 290 4,8 km/h (1 Bft)
28.03.2020 05:25 -0,1 C 84 % 1015,7 hPa 0,0 mm W-NW 290 4,8 km/h (1 Bft)
28.03.2020 05:30 -0,1 C 85 % 1015,7 hPa 0,0 mm W-NW 290 6,4 km/h (2 Bft)
28.03.2020 05:35 -0,1 C 85 % 1015,7 hPa 0,0 mm W-NW 290 4,8 km/h (1 Bft)
28.03.2020 05:40 0,0 C 85 % 1015,6 hPa 0,0 mm W-NW 290 4,8 km/h (1 Bft)
28.03.2020 05:45 0,0 C 85 % 1015,7 hPa 0,0 mm W-NW 290 4,8 km/h (1 Bft)
28.03.2020 05:50 0,0 C 85 % 1015,8 hPa 0,0 mm W-NW 290 4,8 km/h (1 Bft)
28.03.2020 05:55 0,0 C 85 % 1015,8 hPa 0,0 mm W-NW 290 4,8 km/h (1 Bft)
28.03.2020 06:00 0,0 C 85 % 1015,8 hPa 0,0 mm W-NW 290 6,4 km/h (2 Bft)
28.03.2020 06:05 0,0 C 85 % 1015,8 hPa 0,0 mm W-NW 290 0,0 km/h (0 Bft)
28.03.2020 06:10 0,0 C 85 % 1015,9 hPa 0,0 mm W-NW 290 0,0 km/h (0 Bft)
28.03.2020 06:15 0,0 C 85 % 1016,1 hPa 0,0 mm W-NW 290 0,0 km/h (0 Bft)
28.03.2020 06:20 0,1 C 85 % 1016,2 hPa 0,0 mm W-NW 290 4,8 km/h (1 Bft)
28.03.2020 06:25 0,1 C 85 % 1016,3 hPa 0,0 mm W-NW 290 0,0 km/h (0 Bft)
28.03.2020 06:30 0,1 C 85 % 1016,4 hPa 0,0 mm W-NW 290 6,4 km/h (2 Bft)
28.03.2020 06:35 0,2 C 85 % 1016,5 hPa 0,0 mm W-NW 290 4,8 km/h (1 Bft)
28.03.2020 06:40 0,3 C 85 % 1016,6 hPa 0,0 mm W-NW 290 0,0 km/h (0 Bft)
28.03.2020 06:45 0,4 C 86 % 1016,6 hPa 0,0 mm W-NW 290 0,0 km/h (0 Bft)
28.03.2020 06:50 0,6 C 86 % 1016,6 hPa 0,0 mm W-NW 290 0,0 km/h (0 Bft)
28.03.2020 06:55 1,3 C 87 % 1016,7 hPa 0,0 mm W-NW 290 0,0 km/h (0 Bft)
28.03.2020 07:00 2,3 C 85 % 1016,7 hPa 0,0 mm W-NW 290 0,0 km/h (0 Bft)
28.03.2020 07:05 2,1 C 83 % 1016,8 hPa 0,0 mm W-NW 290 0,0 km/h (0 Bft)
28.03.2020 07:10 1,9 C 85 % 1016,9 hPa 0,0 mm W-NW 290 0,0 km/h (0 Bft)
28.03.2020 07:15 2,0 C 86 % 1017,0 hPa 0,0 mm W-NW 290 0,0 km/h (0 Bft)
28.03.2020 07:20 2,7 C 85 % 1017,0 hPa 0,0 mm W-NW 291 4,8 km/h (1 Bft)
28.03.2020 07:25 2,4 C 84 % 1017,0 hPa 0,0 mm W-NW 290 1,6 km/h (1 Bft)
28.03.2020 07:30 2,4 C 83 % 1017,0 hPa 0,0 mm W-NW 290 0,0 km/h (0 Bft)
28.03.2020 07:35 2,8 C 84 % 1016,9 hPa 0,0 mm W-NW 290 0,0 km/h (0 Bft)
28.03.2020 07:40 3,2 C 83 % 1017,0 hPa 0,0 mm W-NW 290 0,0 km/h (0 Bft)
28.03.2020 07:45 4,0 C 81 % 1017,1 hPa 0,0 mm W-NW 290 0,0 km/h (0 Bft)
28.03.2020 07:50 4,0 C 81 % 1017,1 hPa 0,0 mm SO 143 6,4 km/h (2 Bft)
28.03.2020 07:55 4,2 C 80 % 1017,2 hPa 0,0 mm O-SO 115 6,4 km/h (2 Bft)
28.03.2020 08:00 4,7 C 80 % 1017,2 hPa 0,0 mm O 100 9,7 km/h (2 Bft)
28.03.2020 08:05 5,0 C 79 % 1017,1 hPa 0,0 mm O-NO 69 8,0 km/h (2 Bft)
28.03.2020 08:10 5,0 C 78 % 1017,1 hPa 0,0 mm O-NO 69 4,8 km/h (1 Bft)
28.03.2020 08:15 5,2 C 78 % 1017,1 hPa 0,0 mm O-NO 69 4,8 km/h (1 Bft)
28.03.2020 08:20 5,6 C 78 % 1017,1 hPa 0,0 mm O-NO 69 3,2 km/h (1 Bft)
28.03.2020 08:25 5,8 C 75 % 1017,1 hPa 0,0 mm O-NO 70 4,8 km/h (1 Bft)
28.03.2020 08:30 5,9 C 77 % 1017,0 hPa 0,0 mm O-NO 71 4,8 km/h (1 Bft)
28.03.2020 08:35 6,1 C 75 % 1017,0 hPa 0,0 mm O-NO 71 3,2 km/h (1 Bft)
28.03.2020 08:40 6,4 C 75 % 1017,0 hPa 0,0 mm O-NO 71 4,8 km/h (1 Bft)
28.03.2020 08:45 6,5 C 74 % 1017,0 hPa 0,0 mm O-NO 71 4,8 km/h (1 Bft)
28.03.2020 08:50 6,9 C 76 % 1017,0 hPa 0,0 mm O-NO 71 4,8 km/h (1 Bft)
28.03.2020 08:55 6,9 C 74 % 1017,0 hPa 0,0 mm O 90 8,0 km/h (2 Bft)
28.03.2020 09:00 7,2 C 74 % 1017,0 hPa 0,0 mm O-SO 112 8,0 km/h (2 Bft)
28.03.2020 09:05 7,3 C 72 % 1017,0 hPa 0,0 mm S-SO 148 8,0 km/h (2 Bft)
28.03.2020 09:10 7,6 C 72 % 1016,9 hPa 0,0 mm O 96 8,0 km/h (2 Bft)
28.03.2020 09:15 8,0 C 71 % 1016,9 hPa 0,0 mm O-SO 105 6,4 km/h (2 Bft)
28.03.2020 09:20 8,3 C 67 % 1016,9 hPa 0,0 mm O-NO 72 8,0 km/h (2 Bft)
28.03.2020 09:25 8,6 C 66 % 1016,9 hPa 0,0 mm O-NO 72 4,8 km/h (1 Bft)
28.03.2020 09:30 8,7 C 66 % 1016,8 hPa 0,0 mm O-NO 73 6,4 km/h (2 Bft)
28.03.2020 09:35 9,2 C 67 % 1016,8 hPa 0,0 mm O-NO 73 4,8 km/h (1 Bft)
28.03.2020 09:40 9,3 C 65 % 1016,8 hPa 0,0 mm SO 144 4,8 km/h (1 Bft)
28.03.2020 09:45 9,8 C 67 % 1016,7 hPa 0,0 mm SO 144 6,4 km/h (2 Bft)
28.03.2020 09:50 9,8 C 64 % 1016,7 hPa 0,0 mm SO 144 6,4 km/h (2 Bft)
28.03.2020 09:55 9,8 C 65 % 1016,7 hPa 0,0 mm SO 144 3,2 km/h (1 Bft)
28.03.2020 10:00 10,6 C 62 % 1016,5 hPa 0,0 mm SO 144 3,2 km/h (1 Bft)
28.03.2020 10:05 10,7 C 62 % 1016,5 hPa 0,0 mm SO 144 1,6 km/h (1 Bft)
28.03.2020 10:10 11,4 C 62 % 1016,5 hPa 0,0 mm SO 144 3,2 km/h (1 Bft)
28.03.2020 10:15 11,6 C 60 % 1016,4 hPa 0,0 mm SO 144 3,2 km/h (1 Bft)
28.03.2020 10:20 11,4 C 59 % 1016,4 hPa 0,0 mm O-NO 57 6,4 km/h (2 Bft)
28.03.2020 10:25 11,3 C 57 % 1016,4 hPa 0,0 mm O-NO 57 1,6 km/h (1 Bft)
28.03.2020 10:30 12,4 C 61 % 1016,4 hPa 0,0 mm W 265 4,8 km/h (1 Bft)
28.03.2020 10:35 12,3 C 59 % 1016,3 hPa 0,0 mm W-SW 252 6,4 km/h (2 Bft)
28.03.2020 10:40 13,6 C 53 % 1016,3 hPa 0,0 mm W-SW 254 8,0 km/h (2 Bft)
28.03.2020 10:45 13,6 C 57 % 1016,3 hPa 0,0 mm W-SW 255 6,4 km/h (2 Bft)
28.03.2020 10:50 14,9 C 53 % 1016,2 hPa 0,0 mm W-SW 257 9,7 km/h (2 Bft)
28.03.2020 10:55 15,2 C 50 % 1016,2 hPa 0,0 mm W 259 9,7 km/h (2 Bft)
28.03.2020 11:00 15,4 C 51 % 1016,0 hPa 0,0 mm W-SW 250 14,5 km/h (3 Bft)
28.03.2020 11:05 15,2 C 52 % 1016,0 hPa 0,0 mm W 268 11,3 km/h (2 Bft)
28.03.2020 11:10 15,1 C 53 % 1015,9 hPa 0,0 mm W 267 11,3 km/h (2 Bft)
28.03.2020 11:15 15,4 C 50 % 1015,9 hPa 0,0 mm W 271 12,9 km/h (3 Bft)
28.03.2020 11:20 15,2 C 51 % 1015,8 hPa 0,0 mm W-NW 282 11,3 km/h (2 Bft)
28.03.2020 11:25 15,5 C 50 % 1015,8 hPa 0,0 mm W 268 16,1 km/h (3 Bft)
28.03.2020 11:30 15,4 C 50 % 1015,8 hPa 0,0 mm W 273 14,5 km/h (3 Bft)
28.03.2020 11:35 15,6 C 49 % 1015,8 hPa 0,0 mm W-NW 286 11,3 km/h (2 Bft)
28.03.2020 11:40 15,6 C 50 % 1015,7 hPa 0,0 mm W 276 16,1 km/h (3 Bft)
28.03.2020 11:45 15,7 C 48 % 1015,8 hPa 0,0 mm W 269 11,3 km/h (2 Bft)
28.03.2020 11:50 15,9 C 49 % 1015,8 hPa 0,0 mm W-NW 291 14,5 km/h (3 Bft)
28.03.2020 11:55 16,2 C 49 % 1015,8 hPa 0,0 mm W 267 14,5 km/h (3 Bft)
28.03.2020 12:00 15,7 C 49 % 1015,8 hPa 0,0 mm W-SW 253 16,1 km/h (3 Bft)
28.03.2020 12:05 16,2 C 47 % 1015,7 hPa 0,0 mm W-NW 291 14,5 km/h (3 Bft)
28.03.2020 12:10 16,3 C 47 % 1015,7 hPa 0,0 mm W-NW 288 16,1 km/h (3 Bft)
28.03.2020 12:15 16,1 C 50 % 1015,7 hPa 0,0 mm W 275 14,5 km/h (3 Bft)
28.03.2020 12:20 15,8 C 49 % 1015,7 hPa 0,0 mm W 264 16,1 km/h (3 Bft)
28.03.2020 12:25 15,4 C 50 % 1015,7 hPa 0,0 mm N-NO 21 16,1 km/h (3 Bft)
28.03.2020 12:30 15,6 C 50 % 1015,7 hPa 0,0 mm W 259 14,5 km/h (3 Bft)
28.03.2020 12:35 15,8 C 51 % 1015,6 hPa 0,0 mm W-NW 288 17,7 km/h (3 Bft)
28.03.2020 12:40 15,8 C 53 % 1015,6 hPa 0,0 mm W 268 16,1 km/h (3 Bft)
28.03.2020 12:45 16,2 C 49 % 1015,6 hPa 0,0 mm W 271 14,5 km/h (3 Bft)
28.03.2020 12:50 15,8 C 50 % 1015,5 hPa 0,0 mm W 261 12,9 km/h (3 Bft)
28.03.2020 12:55 15,2 C 51 % 1015,5 hPa 0,0 mm N-NO 17 11,3 km/h (2 Bft)
28.03.2020 13:00 15,4 C 50 % 1015,4 hPa 0,0 mm W 276 14,5 km/h (3 Bft)
28.03.2020 13:05 15,9 C 50 % 1015,4 hPa 0,0 mm W 275 12,9 km/h (3 Bft)
28.03.2020 13:10 16,0 C 50 % 1015,4 hPa 0,0 mm W-SW 244 12,9 km/h (3 Bft)
28.03.2020 13:15 15,9 C 49 % 1015,3 hPa 0,0 mm W 269 11,3 km/h (2 Bft)
28.03.2020 13:20 15,9 C 52 % 1015,3 hPa 0,0 mm W 280 8,0 km/h (2 Bft)
28.03.2020 13:25 15,5 C 52 % 1015,2 hPa 0,0 mm W-NW 288 12,9 km/h (3 Bft)
28.03.2020 13:30 15,7 C 52 % 1015,2 hPa 0,0 mm W 261 14,5 km/h (3 Bft)
28.03.2020 13:35 15,8 C 50 % 1015,1 hPa 0,0 mm W 264 16,1 km/h (3 Bft)
28.03.2020 13:40 15,4 C 51 % 1015,1 hPa 0,0 mm W 279 12,9 km/h (3 Bft)
28.03.2020 13:45 15,3 C 51 % 1015,0 hPa 0,0 mm W 271 17,7 km/h (3 Bft)
28.03.2020 13:50 15,2 C 51 % 1015,0 hPa 0,0 mm W 271 19,3 km/h (3 Bft)
28.03.2020 13:55 15,1 C 54 % 1014,9 hPa 0,0 mm W-NW 283 14,5 km/h (3 Bft)
28.03.2020 14:00 15,0 C 51 % 1015,0 hPa 0,0 mm W-NW 282 17,7 km/h (3 Bft)
28.03.2020 14:05 15,0 C 51 % 1015,0 hPa 0,0 mm W 265 14,5 km/h (3 Bft)
28.03.2020 14:10 14,6 C 53 % 1014,8 hPa 0,0 mm W 268 12,9 km/h (3 Bft)
28.03.2020 14:15 14,8 C 53 % 1014,8 hPa 0,0 mm W-NW 288 14,5 km/h (3 Bft)
28.03.2020 14:20 14,8 C 55 % 1014,7 hPa 0,0 mm W 278 11,3 km/h (2 Bft)
28.03.2020 14:25 15,0 C 53 % 1014,7 hPa 0,0 mm W-NW 286 12,9 km/h (3 Bft)
28.03.2020 14:30 14,9 C 52 % 1014,6 hPa 0,0 mm W 276 16,1 km/h (3 Bft)
28.03.2020 14:35 14,9 C 53 % 1014,7 hPa 0,0 mm W-NW 284 12,9 km/h (3 Bft)
28.03.2020 14:40 15,0 C 53 % 1014,7 hPa 0,0 mm W 270 16,1 km/h (3 Bft)
28.03.2020 14:45 15,0 C 54 % 1014,6 hPa 0,0 mm W 261 11,3 km/h (2 Bft)
28.03.2020 14:50 15,1 C 54 % 1014,5 hPa 0,0 mm W 268 12,9 km/h (3 Bft)
28.03.2020 14:55 15,1 C 53 % 1014,5 hPa 0,0 mm W-SW 256 12,9 km/h (3 Bft)
28.03.2020 15:00 14,9 C 53 % 1014,5 hPa 0,0 mm W-NW 288 14,5 km/h (3 Bft)
28.03.2020 15:05 15,1 C 52 % 1014,5 hPa 0,0 mm W-NW 284 16,1 km/h (3 Bft)
28.03.2020 15:10 15,1 C 51 % 1014,4 hPa 0,0 mm W 271 14,5 km/h (3 Bft)
28.03.2020 15:15 14,9 C 51 % 1014,3 hPa 0,0 mm W 263 11,3 km/h (2 Bft)
28.03.2020 15:20 14,9 C 52 % 1014,4 hPa 0,0 mm W 268 12,9 km/h (3 Bft)
28.03.2020 15:25 14,9 C 50 % 1014,3 hPa 0,0 mm W 273 16,1 km/h (3 Bft)
28.03.2020 15:30 14,9 C 50 % 1014,3 hPa 0,0 mm W 277 11,3 km/h (2 Bft)
28.03.2020 15:35 14,8 C 51 % 1014,3 hPa 0,0 mm W 281 12,9 km/h (3 Bft)
28.03.2020 15:40 14,8 C 53 % 1014,3 hPa 0,0 mm S 169 6,4 km/h (2 Bft)
28.03.2020 15:45 14,6 C 53 % 1014,3 hPa 0,0 mm W-SW 257 11,3 km/h (2 Bft)
28.03.2020 15:50 14,8 C 53 % 1014,2 hPa 0,0 mm W 267 8,0 km/h (2 Bft)
28.03.2020 15:55 14,8 C 53 % 1014,1 hPa 0,0 mm W-NW 292 11,3 km/h (2 Bft)
28.03.2020 16:00 14,9 C 52 % 1014,1 hPa 0,0 mm W 277 9,7 km/h (2 Bft)
28.03.2020 16:05 14,9 C 51 % 1014,1 hPa 0,0 mm W-SW 244 11,3 km/h (2 Bft)
28.03.2020 16:10 14,8 C 50 % 1014,1 hPa 0,0 mm W 279 12,9 km/h (3 Bft)
28.03.2020 16:15 14,6 C 52 % 1014,1 hPa 0,0 mm W-SW 255 8,0 km/h (2 Bft)
28.03.2020 16:20 14,7 C 50 % 1014,1 hPa 0,0 mm W 267 16,1 km/h (3 Bft)
28.03.2020 16:25 14,7 C 49 % 1014,1 hPa 0,0 mm W 273 9,7 km/h (2 Bft)
28.03.2020 16:30 14,6 C 49 % 1014,0 hPa 0,0 mm W-NW 297 11,3 km/h (2 Bft)
28.03.2020 16:35 14,6 C 50 % 1014,0 hPa 0,0 mm W 268 12,9 km/h (3 Bft)
28.03.2020 16:40 14,6 C 50 % 1014,1 hPa 0,0 mm W 273 12,9 km/h (3 Bft)
28.03.2020 16:45 14,6 C 49 % 1014,1 hPa 0,0 mm W 280 16,1 km/h (3 Bft)
28.03.2020 16:50 14,4 C 47 % 1014,1 hPa 0,0 mm W 274 12,9 km/h (3 Bft)
28.03.2020 16:55 14,4 C 47 % 1014,2 hPa 0,0 mm W 273 9,7 km/h (2 Bft)
28.03.2020 17:00 14,3 C 47 % 1014,2 hPa 0,0 mm W 268 12,9 km/h (3 Bft)
28.03.2020 17:05 14,2 C 48 % 1014,1 hPa 0,0 mm W-NW 284 11,3 km/h (2 Bft)
28.03.2020 17:10 14,1 C 49 % 1014,1 hPa 0,0 mm W 271 11,3 km/h (2 Bft)
28.03.2020 17:15 14,1 C 49 % 1014,1 hPa 0,0 mm W-SW 254 14,5 km/h (3 Bft)
28.03.2020 17:20 14,0 C 49 % 1014,2 hPa 0,0 mm W 266 12,9 km/h (3 Bft)
28.03.2020 17:25 13,9 C 51 % 1014,1 hPa 0,0 mm W 269 11,3 km/h (2 Bft)
28.03.2020 17:30 13,8 C 53 % 1014,2 hPa 0,0 mm W 274 9,7 km/h (2 Bft)
28.03.2020 17:35 13,7 C 53 % 1014,2 hPa 0,0 mm W 265 9,7 km/h (2 Bft)
28.03.2020 17:40 13,7 C 53 % 1014,2 hPa 0,0 mm W 274 9,7 km/h (2 Bft)
28.03.2020 17:45 13,7 C 53 % 1014,2 hPa 0,0 mm W 272 9,7 km/h (2 Bft)
28.03.2020 17:50 13,7 C 53 % 1014,2 hPa 0,0 mm W 265 9,7 km/h (2 Bft)
28.03.2020 17:55 13,6 C 54 % 1014,3 hPa 0,0 mm W 273 9,7 km/h (2 Bft)
28.03.2020 18:00 13,4 C 55 % 1014,3 hPa 0,0 mm W 274 4,8 km/h (1 Bft)
28.03.2020 18:05 13,3 C 55 % 1014,3 hPa 0,0 mm W 274 6,4 km/h (2 Bft)
28.03.2020 18:10 13,1 C 55 % 1014,4 hPa 0,0 mm W 273 6,4 km/h (2 Bft)
28.03.2020 18:15 12,8 C 55 % 1014,4 hPa 0,0 mm W 273 4,8 km/h (1 Bft)
28.03.2020 18:20 12,6 C 56 % 1014,4 hPa 0,0 mm W 273 4,8 km/h (1 Bft)
28.03.2020 18:25 12,4 C 56 % 1014,5 hPa 0,0 mm W 273 4,8 km/h (1 Bft)
28.03.2020 18:30 12,2 C 56 % 1014,6 hPa 0,0 mm W 273 3,2 km/h (1 Bft)
28.03.2020 18:35 12,0 C 57 % 1014,7 hPa 0,0 mm W 273 3,2 km/h (1 Bft)
28.03.2020 18:40 11,8 C 57 % 1014,7 hPa 0,0 mm W 273 4,8 km/h (1 Bft)
28.03.2020 18:45 11,5 C 57 % 1014,8 hPa 0,0 mm W 273 3,2 km/h (1 Bft)
28.03.2020 18:50 11,2 C 58 % 1014,9 hPa 0,0 mm W 273 1,6 km/h (1 Bft)
28.03.2020 18:55 10,9 C 59 % 1015,0 hPa 0,0 mm W 273 0,0 km/h (0 Bft)
28.03.2020 19:00 10,7 C 59 % 1015,0 hPa 0,0 mm W 273 0,0 km/h (0 Bft)
28.03.2020 19:05 10,4 C 59 % 1015,1 hPa 0,0 mm W 273 0,0 km/h (0 Bft)
28.03.2020 19:10 10,1 C 60 % 1015,3 hPa 0,0 mm W 273 0,0 km/h (0 Bft)
28.03.2020 19:15 9,7 C 61 % 1015,3 hPa 0,0 mm W 273 0,0 km/h (0 Bft)
28.03.2020 19:20 9,2 C 62 % 1015,3 hPa 0,0 mm W 273 1,6 km/h (1 Bft)
28.03.2020 19:25 8,8 C 63 % 1015,4 hPa 0,0 mm W 273 4,8 km/h (1 Bft)
28.03.2020 19:30 8,3 C 65 % 1015,5 hPa 0,0 mm W 273 4,8 km/h (1 Bft)
28.03.2020 19:35 7,9 C 67 % 1015,6 hPa 0,0 mm W 273 4,8 km/h (1 Bft)
28.03.2020 19:40 7,6 C 68 % 1015,6 hPa 0,0 mm W 273 4,8 km/h (1 Bft)
28.03.2020 19:45 7,4 C 70 % 1015,7 hPa 0,0 mm W 273 4,8 km/h (1 Bft)
28.03.2020 19:50 7,2 C 70 % 1015,7 hPa 0,0 mm W 273 6,4 km/h (2 Bft)
28.03.2020 19:55 7,1 C 71 % 1015,8 hPa 0,0 mm W 273 4,8 km/h (1 Bft)
28.03.2020 20:00 6,9 C 71 % 1015,9 hPa 0,0 mm W 273 4,8 km/h (1 Bft)
28.03.2020 20:05 6,7 C 72 % 1015,9 hPa 0,0 mm W 273 6,4 km/h (2 Bft)
28.03.2020 20:10 6,5 C 72 % 1015,8 hPa 0,0 mm W 273 6,4 km/h (2 Bft)
28.03.2020 20:15 6,3 C 73 % 1015,9 hPa 0,0 mm W 273 4,8 km/h (1 Bft)
28.03.2020 20:20 6,2 C 74 % 1015,8 hPa 0,0 mm W 273 4,8 km/h (1 Bft)
28.03.2020 20:25 6,1 C 74 % 1015,9 hPa 0,0 mm W 273 4,8 km/h (1 Bft)
28.03.2020 20:30 6,1 C 75 % 1015,8 hPa 0,0 mm W 274 6,4 km/h (2 Bft)
28.03.2020 20:35 6,0 C 75 % 1015,8 hPa 0,0 mm W 274 6,4 km/h (2 Bft)
28.03.2020 20:40 5,9 C 75 % 1015,8 hPa 0,0 mm W 274 3,2 km/h (1 Bft)
28.03.2020 20:45 5,7 C 75 % 1015,9 hPa 0,0 mm W 274 4,8 km/h (1 Bft)
28.03.2020 20:50 5,6 C 75 % 1015,9 hPa 0,0 mm W 274 4,8 km/h (1 Bft)
28.03.2020 20:55 5,4 C 76 % 1016,0 hPa 0,0 mm W 274 6,4 km/h (2 Bft)
28.03.2020 21:00 5,3 C 76 % 1016,0 hPa 0,0 mm W 274 4,8 km/h (1 Bft)
28.03.2020 21:05 5,3 C 77 % 1015,9 hPa 0,0 mm W 274 3,2 km/h (1 Bft)
28.03.2020 21:10 5,2 C 77 % 1016,0 hPa 0,0 mm W 274 3,2 km/h (1 Bft)
28.03.2020 21:15 5,1 C 77 % 1016,1 hPa 0,0 mm W 274 3,2 km/h (1 Bft)
28.03.2020 21:20 5,0 C 77 % 1016,0 hPa 0,0 mm W 274 3,2 km/h (1 Bft)
28.03.2020 21:25 4,9 C 78 % 1015,9 hPa 0,0 mm W 274 6,4 km/h (2 Bft)
28.03.2020 21:30 4,8 C 78 % 1015,9 hPa 0,0 mm W 274 4,8 km/h (1 Bft)
28.03.2020 21:35 4,8 C 78 % 1016,0 hPa 0,0 mm W 274 8,0 km/h (2 Bft)
28.03.2020 21:40 4,6 C 79 % 1016,1 hPa 0,0 mm W 281 8,0 km/h (2 Bft)
28.03.2020 21:45 4,6 C 79 % 1016,1 hPa 0,0 mm W 266 6,4 km/h (2 Bft)
28.03.2020 21:50 4,5 C 80 % 1016,1 hPa 0,0 mm W 266 4,8 km/h (1 Bft)
28.03.2020 21:55 4,5 C 80 % 1016,0 hPa 0,0 mm W 266 4,8 km/h (1 Bft)
28.03.2020 22:00 4,5 C 80 % 1016,1 hPa 0,0 mm W 266 4,8 km/h (1 Bft)
28.03.2020 22:05 4,4 C 80 % 1016,1 hPa 0,0 mm W 266 4,8 km/h (1 Bft)
28.03.2020 22:10 4,4 C 80 % 1016,1 hPa 0,0 mm W 266 6,4 km/h (2 Bft)
28.03.2020 22:15 4,3 C 81 % 1016,0 hPa 0,0 mm W 266 6,4 km/h (2 Bft)
28.03.2020 22:20 4,3 C 81 % 1015,9 hPa 0,0 mm W 266 4,8 km/h (1 Bft)
28.03.2020 22:25 4,2 C 81 % 1015,9 hPa 0,0 mm W 266 6,4 km/h (2 Bft)
28.03.2020 22:30 4,1 C 81 % 1015,9 hPa 0,0 mm W 266 4,8 km/h (1 Bft)
28.03.2020 22:35 3,9 C 81 % 1015,9 hPa 0,0 mm W 266 4,8 km/h (1 Bft)
28.03.2020 22:40 3,8 C 81 % 1015,9 hPa 0,0 mm W 266 6,4 km/h (2 Bft)
28.03.2020 22:45 3,7 C 81 % 1016,0 hPa 0,0 mm W 266 4,8 km/h (1 Bft)
28.03.2020 22:50 3,6 C 82 % 1015,9 hPa 0,0 mm W 281 8,0 km/h (2 Bft)
28.03.2020 22:55 3,6 C 82 % 1016,0 hPa 0,0 mm W 275 8,0 km/h (2 Bft)
28.03.2020 23:00 3,6 C 82 % 1015,9 hPa 0,0 mm W 275 6,4 km/h (2 Bft)
28.03.2020 23:05 3,5 C 83 % 1016,0 hPa 0,0 mm W 275 4,8 km/h (1 Bft)
28.03.2020 23:10 3,4 C 83 % 1016,0 hPa 0,0 mm W 275 4,8 km/h (1 Bft)
28.03.2020 23:15 3,4 C 83 % 1015,9 hPa 0,0 mm W 275 4,8 km/h (1 Bft)
28.03.2020 23:20 3,3 C 83 % 1015,9 hPa 0,0 mm W 271 8,0 km/h (2 Bft)
28.03.2020 23:25 3,3 C 84 % 1015,8 hPa 0,0 mm W 270 8,0 km/h (2 Bft)
28.03.2020 23:30 3,3 C 84 % 1015,9 hPa 0,0 mm W 269 6,4 km/h (2 Bft)
28.03.2020 23:35 3,3 C 84 % 1015,8 hPa 0,0 mm W 272 8,0 km/h (2 Bft)
28.03.2020 23:40 3,3 C 84 % 1015,8 hPa 0,0 mm W 271 6,4 km/h (2 Bft)
28.03.2020 23:45 3,3 C 84 % 1015,8 hPa 0,0 mm W 271 3,2 km/h (1 Bft)
28.03.2020 23:50 3,3 C 84 % 1015,7 hPa 0,0 mm W 271 3,2 km/h (1 Bft)
28.03.2020 23:55 3,3 C 84 % 1015,8 hPa 0,0 mm W 271 0,0 km/h (0 Bft)
_ Min-Zeit 04:45 12:05 16:30 - - - 00:00
Minimum _ -0,1 C 47 % 1014,0 hPa - - - 0,0 km/h (0 Bft)
_ Max-Zeit 11:55 06:55 07:55 00:00 - - 13:50
Maximum _ 16,3 C 87 % 1017,2 hPa 0,0 mm - - 19,3 km/h
W-SW (3 Bft)
Durchschnitt _ 7,6 C 69 % 1015,5 hPa #0,0 mm W - 6,5 km/h (2 Bft)